Vertical_Velocity
1 1 -0 -0 -0 -1 -0 0 -1 -0 1 0 -0 0 -1 -0 0 -0 -1 -0 -2 0 -1 -2 -2 -0 -0 -3 -1 0 0 2 1 6 1 0 -0 -1 -1 0 0 -4 -1 -1 -4
-0 -0 0 0 1 1 -1 1 0 -1 -0 0 1 -0 -1 -0 -0 -0 -1 -1 -1 -0 0 -1 -6 1 0 -1 2 -0 -3 1 -3 -0 0 3 -2 -2 1 -1 -0 0 -4 -2 -2
0 1 0 1 -1 0 -1 0 1 1 0 0 0 1 -1 -0 1 1 -0 -0 -1 -0 -0 1 1 1 1 -2 0 3 -2 1 1 -1 -1 1 -0 -4 -1 2 0 2 -0 -3 -1
1 0 -1 -0 0 1 1 1 0 0 0 -0 0 0 1 -1 1 -1 0 0 1 -0 -1 0 2 2 0 -0 -1 -1 4 3 4 0 -2 -3 -1 -5 -1 -1 -0 1 0 -1 -4
-0 -0 -1 -2 -1 -0 1 1 1 1 1 0 1 0 1 0 0 -1 0 -0 0 -1 -1 -1 3 -2 1 -1 0 -0 0 -3 3 2 -3 -0 -3 -1 -0 -3 -0 -1 2 1 -5
-1 -1 -1 -1 0 1 1 0 -0 -0 -0 -0 0 -0 1 -0 -1 0 2 -1 -1 1 -0 -2 -1 1 1 -2 -1 -1 -0 -2 -2 -0 0 1 0 -2 -1 2 -4 1 4 0 -1
-1 -1 -2 -3 -1 0 0 -0 0 3 2 1 2 2 3 -10 2 2 1 -1 -0 -1 -0 -2 -2 -0 -0 2 -1 -3 -3 -1 -0 -1 -1 -1 -3 -4 -0 -7 -2 2 1 2 -1
-2 -1 -2 -4 -2 -2 -2 -0 -0 1 2 1 0 2 -1 -2 2 0 0 1 1 0 -2 -1 -0 -2 -2 2 -1 -1 -2 -1 1 -1 -0 1 -1 -2 -2 1 -2 -1 1 3 0
-1 0 -1 -2 -3 -0 -3 -2 -1 -0 0 1 1 1 -5 -0 -2 1 1 0 -1 -2 -3 -1 -1 -3 -0 0 -1 -0 -0 -0 1 -1 -1 -1 0 -1 -1 -0 1 -1 1 -1 2
-0 0 -2 -2 -3 -3 -2 -2 -2 -0 -1 1 1 1 1 3 -1 1 3 2 0 -2 -1 -1 -3 -0 0 -1 0 -1 1 -0 1 -1 -2 -2 -2 -2 -0 0 -2 -2 -1 1 -2
-1 -0 -1 1 -2 -4 -3 -5 -5 1 1 1 -0 0 -0 3 1 -0 1 1 0 -3 0 1 -3 0 6 -1 1 -2 0 -1 -1 -1 -1 -1 -2 1 -0 -0 1 2 2 -2 3
-2 -2 -1 -2 -3 -3 -2 -2 -3 -0 -0 -2 -4 4 -2 -4 4 3 -0 -5 -2 5 0 -3 2 1 0 -3 -0 -0 -1 -2 -1 -1 -1 -1 1 -2 1 1 -1 -5 -3 -1 -3
-2 -4 -2 -4 -4 -3 -5 -3 -1 3 0 -7 0 -0 -5 1 2 5 -1 0 0 0 3 1 11 5 -1 0 -0 0 2 -1 -2 -1 0 -1 -1 -0 -1 1 2 1 -4 -4 -3
-0 -2 -1 -3 -5 -8 -10 -7 -7 -3 1 -4 -3 1 -7 3 9 -6 -1 1 -7 8 5 -2 -2 2 -1 -0 2 2 -0 -1 0 -2 -3 -3 -3 -2 -2 -1 1 1 3 2 5
-4 -4 -5 -8 -5 -8 -8 -9 -8 -8 1 -1 -2 -7 0 1 13 -4 -0 -3 1 5 1 16 -1 4 -4 3 1 7 -1 -2 -2 -1 -3 1 -2 -2 0 4 3 4 0 0 -1
-4 -6 -7 -8 -13 -11 -8 -6 -4 -3 1 -4 -1 -4 6 2 9 -1 6 0 7 -0 -1 -1 2 -1 3 5 1 9 1 -0 -1 -0 -4 -2 -3 0 5 -5 -3 -1 -0 -0 -1
-2 -4 -8 -6 -8 -6 -6 -3 -4 -4 -0 -1 -2 3 7 4 7 3 4 2 1 1 -6 2 1 1 3 1 -2 -1 1 -1 -2 -2 -4 -1 -3 8 1 3 0 1 0 -0 -0
-2 -5 -6 -8 -7 -6 -3 -2 -1 -0 4 -0 1 1 4 6 5 4 4 5 6 5 4 5 -14 -1 5 -0 7 2 -2 -3 -8 -10 1 -1 -10 10 -1 -1 0 1 -2 -3 -3
-7 -5 -8 -7 -8 -7 -4 -2 -3 -1 2 -1 3 1 4 6 3 6 6 6 8 9 3 3 -10 3 3 7 3 -1 -15 10 1 -6 1 -5 -5 7 2 5 3 0 0 3 2
-7 -7 -5 -3 -8 -5 -3 -4 -4 -1 -2 0 -1 1 1 6 5 2 7 4 5 -1 -3 -0 -2 4 8 4 -5 -5 10 1 -9 -11 -7 -5 -5 11 0 -2 -4 1 -1 -1 -3
-4 -7 -6 -7 -8 -7 -4 0 -1 -2 -2 -1 0 2 4 2 7 3 5 8 4 3 2 6 6 6 4 -8 3 -1 -8 -11 -2 -1 1 4 -8 13 3 -1 2 4 2 -0 -0
-5 -6 -7 -6 -7 -10 -8 1 -2 -0 0 -2 -2 0 2 3 4 5 0 3 1 0 3 5 4 4 9 0 3 -0 3 4 -4 -7 -12 -13 -10 7 4 2 1 1 -1 -0 0
-3 -3 -5 -7 -3 -1 0 -5 -6 -3 -2 0 0 -2 -1 2 4 4 2 1 -0 -2 -1 4 -4 8 3 -4 -10 -8 1 4 0 3 -7 -5 14 1 8 -0 5 2 5 0 2
-1 -1 -2 -2 -2 -2 -3 -6 0 3 0 -3 -2 0 1 1 2 5 2 0 1 -1 1 2 -2 3 2 22 11 -4 -1 -2 0 -6 1 -9 -5 -2 9 1 9 6 3 1 4
-2 -2 -3 -4 -2 -2 -5 -2 -1 -5 -1 0 3 -3 -2 1 2 1 5 6 3 0 -0 -1 -2 -0 3 3 -1 -0 6 2 -6 9 -12 8 -11 11 7 4 -8 8 5 -2 2
-2 -1 -2 -1 -3 -1 -3 2 2 -1 -0 3 -0 2 -1 1 -0 4 0 1 -3 5 2 3 1 -0 1 2 -0 0 3 2 2 -2 -1 -4 -7 -5 3 -1 2 -1 3 0 0
-2 1 1 0 -2 -3 -4 -2 -0 -2 3 4 -0 -0 -0 3 2 2 -0 5 7 -2 1 3 0 3 2 0 3 2 0 -1 -1 2 4 1 -5 5 -4 3 2 0 1 6 4
Height
5857 5858 5860 5862 5863 5865 5867 5869 5871 5872 5873 5876 5877 5878 5879 5880 5881 5882 5885 5887 5889 5893 5894 5895 5895 5898 5898 5898 5900 5903 5904 5905 5907 5909 5909 5910 5911 5912 5914 5913 5912 5912 5910 5910 5909
5856 5857 5859 5860 5861 5862 5864 5866 5868 5869 5871 5873 5875 5876 5877 5878 5878 5881 5884 5886 5888 5892 5893 5897 5896 5898 5900 5900 5901 5902 5905 5906 5908 5909 5909 5911 5911 5913 5916 5916 5915 5915 5913 5912 5911
5855 5856 5857 5858 5859 5860 5862 5864 5865 5866 5868 5870 5872 5874 5875 5876 5877 5879 5881 5884 5886 5889 5893 5896 5897 5896 5900 5901 5903 5904 5905 5906 5908 5909 5910 5910 5911 5913 5915 5917 5916 5917 5917 5915 5915
5853 5854 5855 5856 5858 5859 5860 5861 5862 5864 5865 5866 5868 5870 5872 5874 5877 5877 5879 5881 5884 5887 5890 5893 5897 5898 5899 5901 5901 5903 5906 5906 5908 5910 5910 5910 5912 5912 5916 5918 5918 5917 5919 5918 5917
5851 5852 5853 5854 5855 5857 5858 5859 5860 5861 5862 5864 5865 5867 5870 5871 5873 5874 5876 5879 5882 5886 5888 5891 5894 5897 5898 5901 5902 5903 5905 5906 5908 5909 5910 5910 5911 5913 5916 5918 5917 5918 5919 5921 5919
5848 5849 5850 5850 5851 5853 5855 5855 5857 5858 5859 5861 5862 5864 5867 5868 5868 5870 5873 5876 5879 5883 5886 5887 5890 5894 5898 5900 5901 5902 5904 5906 5908 5909 5909 5909 5910 5911 5912 5915 5916 5918 5919 5921 5922
5844 5845 5845 5845 5847 5849 5850 5851 5853 5854 5855 5857 5859 5861 5863 5861 5864 5867 5870 5872 5876 5878 5881 5882 5886 5890 5894 5898 5901 5902 5904 5904 5906 5907 5908 5908 5909 5910 5912 5914 5915 5917 5919 5921 5923
5839 5839 5840 5840 5841 5843 5844 5845 5847 5849 5851 5852 5854 5857 5858 5857 5861 5864 5865 5868 5871 5874 5876 5878 5881 5884 5887 5894 5896 5900 5902 5904 5905 5907 5908 5910 5910 5910 5911 5911 5914 5916 5918 5920 5922
5835 5835 5834 5834 5835 5835 5836 5838 5839 5842 5844 5846 5849 5852 5852 5853 5855 5859 5862 5864 5866 5868 5870 5874 5876 5879 5885 5890 5893 5895 5898 5900 5903 5905 5907 5908 5909 5909 5910 5911 5912 5915 5917 5919 5922
5830 5830 5829 5829 5829 5829 5829 5830 5832 5834 5837 5839 5841 5846 5846 5848 5849 5852 5856 5859 5861 5862 5864 5869 5873 5876 5881 5886 5890 5892 5895 5897 5900 5903 5903 5905 5907 5908 5908 5909 5910 5913 5917 5918 5921
5826 5825 5824 5823 5822 5821 5821 5822 5825 5826 5827 5830 5833 5836 5838 5840 5842 5845 5850 5852 5855 5856 5859 5863 5867 5873 5881 5884 5886 5889 5892 5894 5897 5899 5900 5904 5905 5906 5906 5907 5909 5912 5914 5916 5918
5821 5819 5817 5815 5814 5813 5811 5811 5812 5815 5817 5818 5822 5826 5828 5831 5835 5838 5843 5846 5848 5853 5855 5857 5861 5870 5874 5877 5881 5885 5888 5890 5893 5895 5898 5901 5904 5904 5905 5905 5906 5906 5910 5913 5916
5815 5812 5810 5808 5804 5803 5801 5800 5799 5800 5804 5804 5810 5813 5817 5823 5826 5830 5834 5838 5842 5846 5850 5853 5863 5863 5865 5869 5874 5879 5884 5886 5889 5892 5895 5898 5900 5902 5902 5902 5903 5904 5907 5910 5915
5809 5806 5802 5798 5796 5790 5788 5786 5785 5786 5789 5792 5793 5800 5804 5811 5817 5818 5823 5829 5833 5839 5843 5846 5853 5854 5859 5864 5869 5874 5879 5880 5884 5887 5890 5894 5897 5898 5900 5900 5900 5902 5904 5908 5913
5802 5799 5795 5790 5786 5780 5774 5769 5768 5769 5772 5774 5778 5782 5791 5797 5804 5807 5812 5818 5824 5830 5835 5840 5846 5847 5854 5860 5864 5871 5874 5876 5878 5881 5887 5891 5894 5896 5898 5898 5897 5899 5901 5903 5907
5798 5794 5789 5784 5778 5770 5763 5758 5756 5757 5757 5758 5761 5767 5776 5782 5788 5794 5801 5808 5814 5819 5825 5829 5836 5839 5848 5853 5856 5863 5867 5871 5874 5877 5882 5886 5890 5893 5895 5894 5895 5895 5896 5900 5902
5793 5788 5782 5776 5768 5760 5754 5750 5749 5748 5749 5749 5750 5755 5761 5767 5773 5781 5789 5797 5803 5809 5814 5819 5824 5830 5837 5843 5847 5853 5859 5864 5867 5871 5877 5882 5886 5891 5892 5894 5894 5894 5896 5897 5899
5787 5783 5778 5769 5760 5752 5746 5743 5742 5741 5742 5741 5743 5746 5752 5756 5760 5768 5775 5784 5791 5798 5803 5810 5814 5822 5830 5835 5842 5846 5853 5856 5859 5865 5876 5878 5882 5887 5888 5890 5892 5893 5894 5896 5896
5782 5777 5772 5763 5754 5746 5740 5737 5736 5735 5736 5737 5739 5740 5744 5749 5752 5758 5764 5772 5778 5784 5792 5798 5805 5815 5821 5829 5833 5837 5841 5852 5855 5860 5868 5871 5880 5883 5885 5888 5889 5891 5893 5896 5897
5777 5772 5766 5759 5750 5743 5737 5733 5732 5731 5731 5733 5735 5737 5738 5742 5747 5750 5753 5759 5765 5770 5777 5787 5796 5803 5811 5816 5822 5828 5840 5842 5844 5849 5857 5864 5872 5879 5882 5884 5886 5889 5891 5893 5895
5773 5767 5762 5755 5747 5740 5734 5731 5729 5728 5728 5729 5730 5732 5735 5737 5741 5744 5747 5751 5755 5762 5770 5778 5785 5794 5799 5804 5813 5820 5825 5830 5836 5842 5849 5859 5867 5876 5878 5880 5883 5887 5889 5891 5893
5769 5764 5757 5751 5745 5738 5732 5729 5727 5725 5725 5724 5725 5727 5730 5733 5735 5738 5741 5743 5748 5753 5761 5768 5775 5782 5791 5796 5804 5811 5820 5825 5828 5833 5842 5851 5863 5868 5871 5876 5881 5884 5886 5888 5890
5764 5759 5754 5748 5741 5735 5731 5727 5723 5721 5720 5720 5720 5721 5723 5727 5731 5732 5735 5738 5741 5746 5752 5759 5764 5770 5778 5785 5792 5798 5807 5814 5820 5827 5829 5840 5855 5862 5868 5870 5877 5881 5884 5887 5889
5760 5755 5750 5744 5738 5733 5727 5724 5721 5718 5716 5714 5714 5715 5716 5718 5723 5727 5729 5733 5736 5740 5744 5749 5756 5762 5771 5782 5785 5792 5799 5806 5811 5815 5822 5830 5846 5852 5859 5863 5868 5875 5878 5881 5885
5756 5750 5745 5740 5735 5729 5724 5719 5715 5712 5710 5708 5707 5707 5709 5711 5713 5718 5722 5726 5730 5734 5738 5743 5749 5755 5761 5768 5774 5782 5789 5796 5800 5808 5812 5824 5837 5847 5853 5857 5858 5866 5871 5875 5879
5752 5747 5741 5736 5731 5725 5720 5715 5710 5706 5703 5700 5699 5698 5699 5701 5704 5708 5713 5717 5721 5727 5732 5738 5743 5747 5753 5760 5766 5773 5779 5786 5792 5797 5802 5810 5823 5833 5840 5847 5853 5858 5864 5868 5871
5748 5742 5737 5732 5726 5721 5716 5710 5705 5699 5692 5689 5689 5689 5689 5691 5693 5697 5702 5707 5713 5718 5725 5732 5737 5742 5746 5752 5760 5764 5769 5775 5782 5790 5795 5802 5811 5823 5829 5836 5844 5849 5855 5861 5864